IONOSFERA-M 1

Last updated on Mon Sep 07 2026 00:02:46 GMT+0000 (Coordinated Universal Time)

1 61735U 24199A 26249.63083422 .00000023 00000+0 29820-4 0 9997 2 61735 98.7035 121.8953 0000096 67.7103 292.4086 14.22767069139282
UTC large
Height (km)
Speed (km/s)
/
Latitude / Longitude
Inclination (degrees)
Orbital Period (minutes)
Azimuth
Elevation
Range (km)
Doppler Factor

Next 0 passes for location: London (51.5072 / 0.1276)

No passes found over London.
IONOSFERA-M 1